When you browse on this site, cookies collect data to enhance your experience and personalize the content and advertising you see.
Visit our Privacy Policy to learn more. By continuing to use the site, you agree to this use of cookies and data.
  • In Deutschland
  • Länderverzeichnis
  • Für 7 Tage
  • Wassertemperatur
  • Satellitenkarten
  • Wetterkarte
  • Widgets
  • user-avatar
    Anmelden

    Stündliche Wetter Nauchnyi

    Heute, 21 Februar, Donnerstag

    Zeit Temperatur Niederschläge Wind Luftdruck Luftfeuchtigkeit
    00:00 +2°C° 0 mm 2 m/S 716 mmHg 90%
    01:00 +3°C° 0 mm 1 m/S 716 mmHg 92%
    02:00 +3°C° 0 mm 1 m/S 716 mmHg 93%
    03:00 +3°C° 0 mm 1 m/S 716 mmHg 94%
    04:00 +3°C° 0 mm 1 m/S 716 mmHg 94%
    05:00 +3°C° 0 mm 1 m/S 716 mmHg 94%
    06:00 +2°C° 0 mm 2 m/S 717 mmHg 93%
    07:00 +2°C° 0 mm 2 m/S 717 mmHg 92%
    08:00 +3°C° 0 mm 2 m/S 717 mmHg 91%
    09:00 +3°C° 0 mm 3 m/S 718 mmHg 82%
    10:00 +4°C° 0 mm 4 m/S 718 mmHg 73%
    11:00 +5°C° 0 mm 4 m/S 718 mmHg 63%
    12:00 +5°C° 0 mm 5 m/S 718 mmHg 62%
    13:00 +4°C° 0 mm 6 m/S 718 mmHg 60%
    14:00 +4°C° 0 mm 6 m/S 718 mmHg 58%
    15:00 +3°C° 0 mm 6 m/S 718 mmHg 63%
    16:00 +2°C° 0 mm 5 m/S 718 mmHg 67%
    17:00 +1°C° 0 mm 5 m/S 718 mmHg 71%
    18:00 +1°C° 0 mm 5 m/S 718 mmHg 72%
    19:00 0°C° 0 mm 4 m/S 718 mmHg 73%
    20:00 +1°C° 0 mm 3 m/S 719 mmHg 74%
    21:00 +1°C° 0 mm 3 m/S 719 mmHg 73%
    22:00 +2°C° 0 mm 2 m/S 719 mmHg 73%
    23:00 +1°C° 0 mm 2 m/S 719 mmHg 72%

    Morgen, 22 Februar, Freitag

    Zeit Temperatur Niederschläge Wind Luftdruck Luftfeuchtigkeit
    00:00 +1°C° 0 mm 2 m/S 719 mmHg 73%
    01:00 +1°C° 0 mm 2 m/S 719 mmHg 74%
    02:00 +2°C° 0 mm 1 m/S 719 mmHg 75%
    03:00 +1°C° 0 mm 2 m/S 718 mmHg 78%
    04:00 +1°C° 0 mm 2 m/S 718 mmHg 81%
    05:00 +1°C° 0 mm 2 m/S 718 mmHg 84%
    06:00 +1°C° 0.1 mm 2 m/S 717 mmHg 83%
    07:00 +1°C° 0.1 mm 2 m/S 717 mmHg 82%
    08:00 +2°C° 0.1 mm 2 m/S 717 mmHg 81%
    09:00 +3°C° 0.2 mm 2 m/S 717 mmHg 79%
    10:00 +3°C° 0.2 mm 3 m/S 717 mmHg 76%
    11:00 +3°C° 0.2 mm 3 m/S 717 mmHg 74%
    12:00 +4°C° 0.4 mm 4 m/S 716 mmHg 75%
    13:00 +4°C° 0.4 mm 4 m/S 716 mmHg 76%
    14:00 +3°C° 0.4 mm 5 m/S 715 mmHg 77%
    15:00 +4°C° 1.1 mm 4 m/S 715 mmHg 81%
    16:00 +3°C° 1.1 mm 4 m/S 714 mmHg 85%
    17:00 +3°C° 1.1 mm 4 m/S 714 mmHg 89%
    18:00 +1°C° 1.2 mm 4 m/S 714 mmHg 89%
    19:00 +1°C° 1.2 mm 4 m/S 714 mmHg 89%
    20:00 +1°C° 1.2 mm 4 m/S 713 mmHg 89%
    21:00 0°C° 1.7 mm 4 m/S 714 mmHg 91%
    22:00 -2°C° 1.7 mm 5 m/S 714 mmHg 93%
    23:00 -4°C° 1.7 mm 5 m/S 714 mmHg 95%

    übermorgen, 23 Februar, Samstag

    Zeit Temperatur Niederschläge Wind Luftdruck Luftfeuchtigkeit
    00:00 -5°C° 1.8 mm 5 m/S 714 mmHg 94%
    01:00 -6°C° 1.8 mm 6 m/S 714 mmHg 94%
    02:00 -9°C° 1.8 mm 6 m/S 714 mmHg 93%
    03:00 -9°C° 1.1 mm 6 m/S 714 mmHg 92%
    04:00 -10°C° 1.1 mm 6 m/S 714 mmHg 92%
    05:00 -11°C° 1.1 mm 6 m/S 714 mmHg 91%
    06:00 -11°C° 0.2 mm 6 m/S 715 mmHg 90%
    07:00 -11°C° 0.2 mm 6 m/S 716 mmHg 89%
    08:00 -11°C° 0.2 mm 6 m/S 716 mmHg 88%
    09:00 -11°C° 0.1 mm 6 m/S 717 mmHg 87%
    10:00 -11°C° 0.1 mm 6 m/S 717 mmHg 85%
    11:00 -10°C° 0.1 mm 6 m/S 718 mmHg 84%
    12:00 -10°C° 0 mm 6 m/S 718 mmHg 84%
    13:00 -10°C° 0 mm 5 m/S 719 mmHg 84%
    14:00 -10°C° 0 mm 5 m/S 719 mmHg 83%
    15:00 -10°C° 0 mm 5 m/S 719 mmHg 84%
    16:00 -11°C° 0 mm 5 m/S 720 mmHg 85%
    17:00 -10°C° 0 mm 4 m/S 720 mmHg 86%
    18:00 -11°C° 0 mm 4 m/S 720 mmHg 87%
    19:00 -11°C° 0 mm 4 m/S 721 mmHg 88%
    20:00 -12°C° 0 mm 4 m/S 721 mmHg 88%
    21:00 -12°C° 0 mm 3 m/S 721 mmHg 88%
    22:00 -12°C° 0 mm 3 m/S 721 mmHg 87%
    23:00 -12°C° 0 mm 3 m/S 721 mmHg 87%

    24 Februar, Sonntag

    Zeit Temperatur Niederschläge Wind Luftdruck Luftfeuchtigkeit
    00:00 -12°C° 0 mm 3 m/S 721 mmHg 88%
    01:00 -12°C° 0 mm 3 m/S 721 mmHg 88%
    02:00 -12°C° 0 mm 3 m/S 721 mmHg 89%
    03:00 -12°C° 0 mm 3 m/S 721 mmHg 89%
    04:00 -12°C° 0 mm 3 m/S 721 mmHg 89%
    05:00 -12°C° 0 mm 3 m/S 721 mmHg 90%
    06:00 -12°C° 0 mm 3 m/S 721 mmHg 89%
    07:00 -12°C° 0 mm 3 m/S 722 mmHg 88%
    08:00 -12°C° 0 mm 3 m/S 722 mmHg 87%
    09:00 -10°C° 0 mm 3 m/S 722 mmHg 84%
    10:00 -8°C° 0 mm 2 m/S 722 mmHg 81%
    11:00 -7°C° 0 mm 2 m/S 723 mmHg 79%
    12:00 -7°C° 0 mm 2 m/S 723 mmHg 80%
    13:00 -7°C° 0 mm 2 m/S 723 mmHg 81%
    14:00 -6°C° 0 mm 2 m/S 722 mmHg 82%
    15:00 -7°C° 0.1 mm 2 m/S 722 mmHg 83%
    16:00 -7°C° 0.1 mm 2 m/S 722 mmHg 85%
    17:00 -8°C° 0.1 mm 2 m/S 722 mmHg 87%
    18:00 -8°C° 0 mm 2 m/S 722 mmHg 88%
    19:00 -9°C° 0 mm 2 m/S 723 mmHg 89%
    20:00 -9°C° 0 mm 2 m/S 723 mmHg 90%
    21:00 -10°C° 0 mm 2 m/S 722 mmHg 89%
    22:00 -10°C° 0 mm 2 m/S 722 mmHg 89%
    23:00 -9°C° 0 mm 1 m/S 722 mmHg 88%

    25 Februar, Montag

    Zeit Temperatur Niederschläge Wind Luftdruck Luftfeuchtigkeit
    00:00 -10°C° 0 mm 1 m/S 722 mmHg 87%
    01:00 -10°C° 0 mm 1 m/S 722 mmHg 86%
    02:00 -10°C° 0 mm 1 m/S 721 mmHg 85%
    03:00 -12°C° 0 mm 2 m/S 721 mmHg 84%
    04:00 -12°C° 0 mm 2 m/S 720 mmHg 83%
    05:00 -12°C° 0 mm 2 m/S 720 mmHg 83%
    06:00 -10°C° 0 mm 2 m/S 720 mmHg 82%
    07:00 -8°C° 0 mm 1 m/S 720 mmHg 81%
    08:00 -7°C° 0 mm 1 m/S 720 mmHg 80%
    09:00 -6°C° 0 mm 1 m/S 720 mmHg 76%
    10:00 -4°C° 0 mm 1 m/S 720 mmHg 72%
    11:00 -3°C° 0 mm 1 m/S 720 mmHg 69%
    12:00 -2°C° 0 mm 1 m/S 719 mmHg 69%
    13:00 -4°C° 0 mm 2 m/S 719 mmHg 69%
    14:00 -4°C° 0 mm 2 m/S 718 mmHg 69%
    15:00 -4°C° 0 mm 2 m/S 718 mmHg 72%
    16:00 -3°C° 0 mm 1 m/S 717 mmHg 75%
    17:00 -3°C° 0 mm 1 m/S 717 mmHg 79%
    18:00 -3°C° 0.2 mm 1 m/S 717 mmHg 83%
    19:00 -5°C° 0.2 mm 2 m/S 717 mmHg 88%
    20:00 -5°C° 0.2 mm 2 m/S 716 mmHg 92%
    21:00 -6°C° 0.1 mm 2 m/S 716 mmHg 91%
    22:00 -6°C° 0.1 mm 2 m/S 715 mmHg 91%
    23:00 -7°C° 0.1 mm 2 m/S 715 mmHg 91%

    26 Februar, Dienstag

    Zeit Temperatur Niederschläge Wind Luftdruck Luftfeuchtigkeit
    00:00 -7°C° 0 mm 2 m/S 714 mmHg 89%
    01:00 -7°C° 0 mm 2 m/S 714 mmHg 88%
    02:00 -7°C° 0 mm 2 m/S 714 mmHg 87%
    03:00 -6°C° 0 mm 1 m/S 713 mmHg 87%
    04:00 -6°C° 0 mm 1 m/S 713 mmHg 87%
    05:00 -6°C° 0 mm 1 m/S 713 mmHg 87%
    06:00 -4°C° 0.1 mm 1 m/S 713 mmHg 87%
    07:00 -3°C° 0.1 mm 1 m/S 713 mmHg 87%
    08:00 -3°C° 0.1 mm 1 m/S 713 mmHg 86%
    09:00 -4°C° 0.1 mm 2 m/S 713 mmHg 85%
    10:00 -3°C° 0.1 mm 2 m/S 713 mmHg 83%
    11:00 -2°C° 0.1 mm 3 m/S 712 mmHg 81%
    12:00 -3°C° 0.1 mm 4 m/S 712 mmHg 81%
    13:00 -4°C° 0.1 mm 4 m/S 712 mmHg 81%
    14:00 -4°C° 0.1 mm 4 m/S 712 mmHg 81%
    15:00 -4°C° 0.1 mm 4 m/S 712 mmHg 82%
    16:00 -4°C° 0.1 mm 3 m/S 711 mmHg 83%
    17:00 -5°C° 0.1 mm 3 m/S 711 mmHg 84%
    18:00 -4°C° 0 mm 2 m/S 711 mmHg 85%
    19:00 -5°C° 0 mm 2 m/S 711 mmHg 86%
    20:00 -6°C° 0 mm 2 m/S 711 mmHg 88%
    21:00 -6°C° 0 mm 2 m/S 711 mmHg 87%
    22:00 -4°C° 0 mm 1 m/S 710 mmHg 86%
    23:00 -4°C° 0 mm 1 m/S 710 mmHg 86%
    Mehr zeigen